STARLINK-11464, 62473

Orbit data source: Space-Track

STARLINK-11464, 62473 is a payload satellite owned by SpaceX/Seattle (US) in LEO that was launched on Tue, 31 Dec 2024 UTC via an FALCON 9 launch vehicle from the Air Force Eastern Test Range (AFETR). Payload-class satellites include a variety of spacecraft equipped with specific instruments for various scientific and technological missions. These include communications satellites like Starlink; space stations such as the ISS; scientific satellites like the Hubble; Earth observation satellites from companies like Planet Labs, Umbra, and HawkEye 360; GPS; miniature CubeSats for education and research; and military/defense satellites.

Loading next visibility...
Identifier
62473, 2024-254M
Orbit
LEO
Country
Flag of USUS
Related business
Manufacturer
SpaceX/Seattle
Mission
Operational Commercial Communications
Bus & Motor
STARLINK V2MD, Unknown motor
Mass
960 kg wet, ~910 kg dry
Launch date (UTC)
2024-12-31 (9 months ago)
Launch vehicle
FALCON 9
Launch site
Air Force Eastern Test Range (AFETR)
Object type
Payload
Rocket body
Debris
Shape & HBR
Box + 2 Pan, 14.5 m
Radar Cross Section
36.964 m², Large (>1 m²)

Expand to show TLE details & history
Last TLE update: 20 hours ago

TLE from 20 hours ago
0 STARLINK-11464
1 62473U 24254M   25259.18105184  .00257731  00000-0  19454-2 0  9990
2 62473  42.9984 195.0310 0000983 302.6668  57.4104 15.70900803 42000
Epoch: 2025-09-16T04:20Z
TLE epoch observation values (Epoch: 2025-09-16T04:20:42.878Z)
Latitude
-0.00009°
Longitude
134.4772°
Altitude
355.736 km
Speed
7.698 km/s
True Right ascension
13h 00m 07s
True Declination
0° 00' 00"
Sunlit
Object was in daylight at epoch
Visualization orbit readout
Latitude
Unknown
Longitude
Unknown
Altitude
Unknown
Speed
Unknown
Apparent Right ascension
Unknown
Apparent Declination
Unknown
Sunlit
N/A
Visualization observer readout
Local Sidereal Time
16:43:21
Azimuth
Unknown
Elevation
Unknown
Doppler factor
Unknown
Orbital elements
Apogee altitude
358.965 km
Perigee altitude
357.641 km
Semi-major axis
6,736.44 km
Eccentricity
0.0001
Inclination
42.9984°
RAAN
195.031°
Arg. of periapsis
302.6668°
True anomaly
57.41989°
Mean anomaly
57.4104°
Eccentric anomaly
57.41515°
Mean motion
3.92552 °/min
Orbital period
91.71 mins
BSTAR
0.0019454
Loading maneuver chart data...
Computing Atmospheric mass density...
Loading historical data...
Loading historical data...
Loading historical data...
Loading historical data...
Loading historical data...
Loading historical data...
Loading historical data...

Documentation

Showing up to 5 results
|